Weather in Olshanka

Russia / Belgorod Oblast     51°00′32″N   37°39′56″E
temp.,
°C
wind,
m/s
gust,
m/s
humid.,
%
clouds,
%
prec.,
mm/h
press.,
hPa
HPBL,
m
18 august, thu
thu1800:00+20ene7175534 0.4 1010496
03:00+20ene615555 0.5 1010442
06:00+18ne5125814 0.1 1010313
09:00+24ene6839100 0.1 1009721
12:00+28ene563192 0.0 10091220
15:00+30ese3534100 0.9 10081671
18:00+28ene9124122 0.3 1008922
21:00+19ne41079100 2.3 1011217
19 august, fri
fri1900:00+19ene714795 0.0 1011447
03:00+17ene6138856 0.4 1012431
06:00+17ne7138841 0.1 1012509
09:00+22ene710592 0.1 1012772
12:00+26e895280 0.1 10131551
15:00+23e7955100 0.6 10141051
18:00+20ene9127264 0.2 1014840
21:00+17ene8157446 0.2 1015565
20 august, sat
sat2000:00+18e376099 0.0 1014138
03:00+19e41060100 0.0 1015303
06:00+18ese81766100 0.4 1016572
09:00+20ese41155100 1.0 1018440
12:00+24ese51040100 0.0 10181120
15:00+23ese51234100 0.0 1018678
18:00+26ene61327100 0.0 1016645
21:00+25ese101621100 0.0 1017956
21 august, sun
sun2100:00+24ese81721100 0.0 1018713
03:00+23ese61322100 0.0 1018441
06:00+20ese61325100 0.0 1019387
09:00+22ese61227100 0.0 1018515
12:00+27ese71020100 0.0 10181293
15:00+28ese81019100 0.0 10181738
18:00+27ese61120100 0.0 1017557
21:00+22e41322100 0.0 1018240
22 august, mon
mon2200:00+21e5152090 0.0 1017353
03:00+20e51424100 0.0 1017298
06:00+18e41233100 0.0 1018239
09:00+24ese71336100 0.0 1018753
12:00+29ese81226100 0.0 10181805
15:00+30ese71125100 0.0 10172181
18:00+29ese51125100 0.0 1017456
21:00+23e4103141 0.0 1018149